CZ-6A DEB, 54886

Orbit data source: Space-Track

CZ-6A DEB, 54886 is space debris in SSO originally from a launch on Fri, 11 Nov 2022 UTC launched from the Taiyaun Space Center, China (TSC). Debris objects in space refer to the collection of defunct objects orbiting the Earth. Examples of debris include non-operational satellites, rocket bodies, and fragments generated from explosions, collisions, or faulty payload assembly.

Loading next visibility...
Identifier
54886, 2022-151PX
Orbit
SSO
Country
Flag of CNCN / PRC
Related business
Manufacturer
SAST
Mission
Spacecraft
Bus & Motor
Unknown
Mass
Unknown
Launch date (UTC)
2022-11-11 (4 years ago)
Launch vehicle
Unknown
Launch site
Taiyaun Space Center, China (TSC)
Object type
Payload
Rocket body
Debris
Shape & HBR
Unknown shape, 0.2 m
Radar Cross Section
Medium (>0.1 m² and <1 m²)

Expand to show TLE details & history
Last TLE update: 1 day ago

TLE from 1 day ago
0 CZ-6A DEB
1 54886U 22151PX  26236.98543945  .00000080  00000-0  15930-3 0  9997
2 54886  98.9130  61.4843 0492837 318.6260  37.8492 13.18831511182071
Epoch: 2026-08-24T23:39Z
TLE epoch observation values (Epoch: 2026-08-24T23:39:01.968Z)
Latitude
-0.00007°
Longitude
93.46682°
Altitude
904.77 km
Speed
7.539 km/s
True Right ascension
04h 05m 56s
True Declination
0° 00' 00"
Sunlit
Object was in daylight at epoch
Visualization orbit readout
Latitude
Unknown
Longitude
Unknown
Altitude
Unknown
Speed
Unknown
Apparent Right ascension
Unknown
Apparent Declination
Unknown
Sunlit
N/A
Visualization observer readout
Local Sidereal Time
17:36:18
Azimuth
Unknown
Elevation
Unknown
Doppler factor
Unknown
Orbital elements
Apogee altitude
1,559.294 km
Perigee altitude
813.669 km
Semi-major axis
7,564.619 km
Eccentricity
0.04928
Inclination
98.913°
RAAN
61.4843°
Arg. of periapsis
318.626°
True anomaly
41.48875°
Mean anomaly
37.8492°
Eccentric anomaly
39.65106°
Mean motion
3.29885 °/min
Orbital period
109.13 mins
BSTAR
0.0001593
Loading maneuver chart data...
Computing Atmospheric mass density...
Loading historical data...
Loading historical data...
Loading historical data...
Loading historical data...
Loading historical data...
Loading historical data...
Loading historical data...

Documentation

Showing up to 5 results
|